User: anonymous   Login
Location: Unspecified
(27.4782°N, 0.0000°E)
Time: 04:00:49
(UTC+00:00)
Language:

OPS 7202 - Orbit

View from above orbital plane
View from above orbital plane
View from above satellite
View from above satellite

Ground track
Ground track

The orbit is defined by the following mean orbital elements,

1 02920U          26088.10275175 +.00000000 +00000-0 +60630-4 0 00007
2 02920  98.5965 300.9558 0037147 225.7841 134.0281 14.15294395    00
Epoch (UTC): 29 March 2026 02:27:57
Eccentricity: 0.0037147
inclination: 98.5965°
perigee height: 814 km
apogee height: 868 km
right ascension of ascending node: 300.9558°
argument of perigee: 225.7841°
revolutions per day: 14.15294395
mean anomaly at epoch: 134.0281°

The dashed part of the orbit path shows where the satellite is in the earth's shadow,  

DLR